Location: Newark
(25.5428°S, 54.5819°W)
Time: 01:04:37
(UTC+00:00)

Envisat - Pass Details

Date: 25 July 2019
Orbit: 764 x 766 km, 98.1° (Epoch: 24 August)

Event Time Altitude Azimuth Distance (km) Brightness Sun altitude
Exits shadow 22:41:17 10° 169° (S) 2,322 5.3 -20.6°
Maximum altitude 22:46:25 87° 258° (WSW) 777 2.9 -21.7°
Drops below altitude 10° 22:51:30 10° 346° (NNW) 2,298 5.8 -22.8°
Sets 22:53:47 0° 346° (NNW) 3,217 6.6 -23.3°
